INTELSAT 40E (IS-40E)

Last updated on Sun Jun 21 2026 00:03:09 GMT+0000 (Coordinated Universal Time)

1 56174U 23052A 26171.29766909 -.00000179 00000+0 00000+0 0 9996 2 56174 0.0177 79.6556 0002048 45.4481 159.5614 1.00271291 11857
UTC large
Height (km)
Speed (km/s)
/
Latitude / Longitude
Inclination (degrees)
Orbital Period (minutes)
Azimuth
Elevation
Range (km)
Doppler Factor

Next 0 passes for location: London (51.5072 / 0.1276)

No passes found over London.
INTELSAT 40E (IS-40E)